TimeCDT,TemperatureF,Dew PointF,Humidity,Sea Level PressureIn,VisibilityMPH,Wind Direction,Wind SpeedMPH,Gust SpeedMPH,PrecipitationIn,Events,Conditions,WindDirDegrees,DateUTC
12:52 AM,80.1,70.0,71,29.99,10.0,South,16.1,21.9,N/A,,Clear,180,2013-08-25 05:52:00
1:52 AM,79.0,70.0,74,29.99,10.0,South,13.8,-,N/A,,Clear,170,2013-08-25 06:52:00
2:52 AM,78.1,69.1,74,30.01,10.0,South,15.0,21.9,N/A,,Clear,180,2013-08-25 07:52:00
3:52 AM,78.1,69.1,74,30.01,10.0,South,13.8,23.0,N/A,,Clear,180,2013-08-25 08:52:00
4:52 AM,77.0,69.1,76,30.02,10.0,South,16.1,23.0,N/A,,Clear,180,2013-08-25 09:52:00
5:52 AM,75.9,69.1,79,30.02,10.0,South,12.7,-,N/A,,Clear,170,2013-08-25 10:52:00
6:52 AM,75.9,69.1,79,30.03,10.0,South,13.8,21.9,N/A,,Clear,180,2013-08-25 11:52:00
7:52 AM,77.0,70.0,79,30.04,10.0,South,15.0,-,N/A,,Clear,180,2013-08-25 12:52:00
8:52 AM,79.0,71.1,77,30.03,10.0,South,17.3,25.3,N/A,,Clear,190,2013-08-25 13:52:00
9:52 AM,81.0,71.1,72,30.03,10.0,South,12.7,24.2,N/A,,Clear,190,2013-08-25 14:52:00
10:52 AM,82.9,73.0,72,30.03,10.0,South,16.1,24.2,N/A,,Clear,190,2013-08-25 15:52:00
11:52 AM,86.0,73.9,67,30.01,10.0,South,16.1,24.2,N/A,,Clear,190,2013-08-25 16:52:00
12:52 PM,88.0,73.9,63,30.00,10.0,SSW,17.3,-,N/A,,Clear,200,2013-08-25 17:52:00
1:52 PM,89.1,75.0,63,29.99,10.0,South,17.3,23.0,N/A,,Clear,190,2013-08-25 18:52:00
2:52 PM,91.0,77.0,63,29.99,10.0,South,12.7,19.6,N/A,,Clear,190,2013-08-25 19:52:00
3:52 PM,91.0,75.9,61,29.97,10.0,South,15.0,-,N/A,,Clear,190,2013-08-25 20:52:00
4:52 PM,91.0,75.9,61,29.97,10.0,South,13.8,19.6,N/A,,Clear,190,2013-08-25 21:52:00
5:52 PM,90.0,75.9,63,29.97,10.0,South,12.7,-,N/A,,Clear,190,2013-08-25 22:52:00
6:52 PM,88.0,75.0,65,29.97,10.0,South,10.4,-,N/A,,Clear,180,2013-08-25 23:52:00
7:52 PM,86.0,75.0,70,29.96,10.0,South,10.4,-,N/A,,Clear,170,2013-08-26 00:52:00
8:52 PM,84.0,73.0,69,29.98,10.0,South,10.4,-,N/A,,Clear,170,2013-08-26 01:52:00
9:52 PM,82.9,72.0,69,29.99,10.0,South,10.4,-,N/A,,Clear,170,2013-08-26 02:52:00
10:52 PM,82.9,73.0,72,30.00,10.0,South,16.1,21.9,N/A,,Clear,190,2013-08-26 03:52:00
11:52 PM,82.9,72.0,69,30.00,10.0,South,16.1,23.0,N/A,,Clear,190,2013-08-26 04:52:00